Back to catalog

FENGYUN 1C DEB

AliveSSO
NORAD 37899·DEBRIS·🇨🇳 China

Launched May 10, 1999 from Taiyuan Satellite Launch Center

Loading…

Next Passes (next 24 hours)

TLE

StaleSource: Space-Track

Epoch: Sep 2, 2026, 08:09 UTC

1 37899U 99025EMY 26245.33968424  .00001503  00000-0  12128-2 0  9994
2 37899  98.7866  86.0959 0205881 344.5677  14.9261 13.82447264593123

Track FENGYUN 1C DEB in real time with AllMySat

Download on the App Store